DW1970 Bodega Bay CA US current weather conditions

sailwx.info

Wind from 257

Air temperature 10.0° C
Dewpoint 8.8° C

Last reported at 2019-Apr-18 10:00 UTC.
Time now 2019-Apr-18 10:35 UTC

Location: N 38°23' W 123°04'.
View on Google Maps.

See reports from other nearby stations

  
Tides and Currents Weather Stations Pressure Air Temp Water Temp Dewpoint Dewpoint Depression Visibility Wind Speed Wind Dir Waves Ship Positions
date/time (UTC)wind fromknots sea level pressurealtimeterstation pressurevisibilityair tempwater tempwave heightnotes
2019-Apr-18 10:00 257 10.0
2019-Apr-18 09:45 257 10.0
2019-Apr-18 09:30 257 10.0
2019-Apr-18 09:15 257 10.0
2019-Apr-18 09:00 257 10.6
2019-Apr-18 08:45 257 10.6
2019-Apr-18 08:30 257 10.6
2019-Apr-18 08:15 257 10.6
2019-Apr-18 08:00 257 10.6
2019-Apr-18 07:45 257 10.6
2019-Apr-18 07:30 257 10.6
2019-Apr-18 07:15 257 10.6
2019-Apr-18 07:00 257 10.0
2019-Apr-18 06:45 257 10.0
2019-Apr-18 06:30 257 9.4
2019-Apr-18 06:15 257 9.4
2019-Apr-18 06:01 257 9.4
2019-Apr-18 05:32 257 9.4
2019-Apr-18 05:16 257 9.4
2019-Apr-18 05:02 257 0 9.4
2019-Apr-18 04:47 257 0 10.0
2019-Apr-18 04:32 258 2 9.4
2019-Apr-18 04:30 258 2 9.4
2019-Apr-18 04:16 260 10.0
2019-Apr-18 04:01 260 9.4
2019-Apr-18 03:47 260 10.0
2019-Apr-18 03:32 260 10.0
2019-Apr-18 03:16 260 10.6
2019-Apr-18 03:02 260 10.6
2019-Apr-18 02:46 260 11.1
2019-Apr-18 02:31 260 11.7
2019-Apr-18 02:17 260 11.7
2019-Apr-18 02:02 260 0 12.2
2019-Apr-18 01:46 260 12.8
2019-Apr-18 01:31 260 0 13.3
2019-Apr-18 01:16 260 13.3
2019-Apr-18 01:02 260 1 12.8
2019-Apr-18 00:46 260 1 12.8
2019-Apr-18 00:32 260 2 13.3
2019-Apr-18 00:16 260 1 13.9
2019-Apr-18 00:02 260 0 13.3
2019-Apr-17 23:46 260 1 13.3
2019-Apr-17 23:31 261 2 13.3
2019-Apr-17 23:16 261 1 13.3
2019-Apr-17 23:01 261 2 13.3
2019-Apr-17 22:46 267 1 13.9
2019-Apr-17 22:31 267 2 13.3
2019-Apr-17 22:16 252 1 13.9
2019-Apr-17 22:01 252 0 14.4
2019-Apr-17 21:46 253 0 13.9
2019-Apr-17 21:31 253 1 13.3
2019-Apr-17 21:17 252 1 13.3
2019-Apr-17 21:01 252 1 13.3
2019-Apr-17 20:45 253 0 14.4
2019-Apr-17 20:31 253 1 15.0
2019-Apr-17 20:16 252 1 14.4
2019-Apr-17 20:01 254 0 14.4
2019-Apr-17 19:46 254 0 13.9
2019-Apr-17 19:30 252 0 13.9
2019-Apr-17 19:16 252 0 13.9
2019-Apr-17 19:01 254 0 13.3
2019-Apr-17 18:45 246 0 13.3
2019-Apr-17 18:30 225 0 13.3
2019-Apr-17 18:16 226 0 13.3
2019-Apr-17 18:00 225 12.8
2019-Apr-17 17:45 225 12.8
2019-Apr-17 17:30 223 12.2
2019-Apr-17 17:15 223 0 11.7
2019-Apr-17 17:00 235 11.7
2019-Apr-17 16:45 279 11.1
2019-Apr-17 16:30 336 11.1
2019-Apr-17 16:15 336 10.6
2019-Apr-17 16:00 338 10.6
2019-Apr-17 15:45 348 0 10.0
2019-Apr-17 15:30 036 10.6
2019-Apr-17 15:17 036 11.1
2019-Apr-17 15:02 036 11.7
2019-Apr-17 14:31 040 0 10.6
2019-Apr-17 14:16 088 2 9.4
2019-Apr-17 14:02 080 3 8.9
2019-Apr-17 13:46 057 0 8.3
2019-Apr-17 13:31 053 0 8.3
2019-Apr-17 13:16 302 8.3
2019-Apr-17 13:01 302 8.3
2019-Apr-17 12:47 302 8.3
2019-Apr-17 12:31 302 0 8.3
2019-Apr-17 12:16 297 0 8.3
2019-Apr-17 12:02 297 7.8
2019-Apr-17 11:47 297 8.3
2019-Apr-17 11:31 297 8.3
2019-Apr-17 11:17 297 8.9
2019-Apr-17 11:00 296 8.9
2019-Apr-17 10:46 296 8.3
2019-Apr-17 10:30 296 8.3
2019-Apr-17 10:16 296 0 8.3
2019-Apr-17 10:00 296 8.9
2019-Apr-17 09:46 296 8.9
2019-Apr-17 09:30 296 9.4
2019-Apr-17 09:15 296 9.4
2019-Apr-17 09:01 296 9.4
2019-Apr-17 08:46 296 9.4
2019-Apr-17 08:30 296 9.4
2019-Apr-17 08:15 296 9.4
2019-Apr-17 08:00 296 9.4
2019-Apr-17 07:46 296 9.4
2019-Apr-17 07:30 296 10.0
2019-Apr-17 07:15 296 10.0
2019-Apr-17 07:00 296 9.4
2019-Apr-17 06:45 296 8.9
2019-Apr-17 06:30 296 8.9
2019-Apr-17 06:15 296 9.4
2019-Apr-17 06:00 296 8.9
2019-Apr-17 05:45 296 8.9
2019-Apr-17 05:30 296 8.9
2019-Apr-17 05:15 296 8.9
2019-Apr-17 05:00 296 8.9
2019-Apr-17 04:45 296 8.9
2019-Apr-17 04:30 296 0 8.9
2019-Apr-17 04:15 296 3 9.4
2019-Apr-17 04:02 305 4 9.4
2019-Apr-17 03:46 301 2 9.4
2019-Apr-17 03:45 301 2 9.4
2019-Apr-17 03:32 305 6 9.4
2019-Apr-17 03:16 304 10 9.4
2019-Apr-17 03:01 293 5 9.4
2019-Apr-17 02:46 306 3 10.0
2019-Apr-17 02:31 287 6 10.0
2019-Apr-17 02:16 317 7 10.6
2019-Apr-17 02:02 311 11 10.6
2019-Apr-17 01:46 294 12 10.6
2019-Apr-17 01:32 301 8 11.1
2019-Apr-17 01:16 302 10 11.7
2019-Apr-17 01:01 322 12 11.7
2019-Apr-17 00:46 303 13 11.7
2019-Apr-17 00:31 303 12 11.7
2019-Apr-17 00:16 303 12 11.7
2019-Apr-17 00:01 316 14 11.7
2019-Apr-16 23:47 303 11 12.2
2019-Apr-16 23:31 301 12 12.2
2019-Apr-16 23:15 292 13 11.7
2019-Apr-16 23:01 301 11 12.2
2019-Apr-16 22:46 303 13 12.2
2019-Apr-16 22:30 297 11 12.2
2019-Apr-16 22:16 318 13 12.2
2019-Apr-16 22:01 291 14 11.7
2019-Apr-16 21:45 294 14 11.7
2019-Apr-16 21:31 285 13 12.2
2019-Apr-16 21:15 298 11 12.2
2019-Apr-16 21:00 294 12 12.2
2019-Apr-16 20:45 262 7 12.2
2019-Apr-16 20:32 296 11 12.2
2019-Apr-16 20:16 304 10 12.2
2019-Apr-16 20:00 308 12 12.2
2019-Apr-16 19:45 295 13 12.2
2019-Apr-16 19:31 287 12 11.7
2019-Apr-16 19:15 290 12 11.7
2019-Apr-16 19:01 311 12 11.7
2019-Apr-16 18:46 298 7 11.7
2019-Apr-16 18:30 292 11 11.1
2019-Apr-16 18:15 296 6 11.1
2019-Apr-16 18:00 298 8 11.1
2019-Apr-16 17:45 301 10 10.6
2019-Apr-16 17:30 304 6 11.1
2019-Apr-16 17:15 290 6 11.1
2019-Apr-16 17:00 304 6 10.6
2019-Apr-16 16:45 287 5 11.1
2019-Apr-16 16:30 299 6 10.6
2019-Apr-16 16:15 292 5 10.0
2019-Apr-16 16:00 290 5 10.0
2019-Apr-16 15:48 303 2 10.0
2019-Apr-16 15:31 303 1 9.4
2019-Apr-16 15:17 304 9.4
2019-Apr-16 14:46 304 1 8.9
2019-Apr-16 14:16 304 1 8.3
2019-Apr-16 14:01 304 3 8.3
2019-Apr-16 13:46 304 3 8.3
2019-Apr-16 13:31 304 0 8.3
2019-Apr-16 13:16 304 0 8.3
2019-Apr-16 13:03 304 0 8.3
2019-Apr-16 12:47 304 8.3
2019-Apr-16 12:31 304 0 8.3
2019-Apr-16 11:45 304 1 7.8
2019-Apr-16 11:30 304 2 8.3
2019-Apr-16 11:16 304 1 8.3
2019-Apr-16 11:01 304 3 8.3
2019-Apr-16 10:46 306 6 8.3
2019-Apr-16 10:30 305 3 8.9